FW1999 Weather Reports


time (UTC)temp
C
wind
direction
speed
KPH
gust
KPH
rain 1hr
cm
rain 24hr
cm
rain mn
cm
humidity
%
barometer
mb
20260503214750 15 132 4.8 16.1 0.00 0.00 0.00 33 1011.5
20260503214250 16 106 3.2 16.1 0.00 0.00 0.00 31 1011.5
20260503213734 16 113 3.2 9.7 0.00 0.00 0.00 33 1011.4
20260503213506 16 88 1.6 9.7 0.00 0.00 0.00 34 1011.4
20260503212718 16 101 3.2 12.9 0.00 0.00 0.00 33 1011.4
20260503212206 15 72 3.2 12.9 0.00 0.00 0.00 35 1011.5
20260503211709 15 94 3.2 12.9 0.00 0.00 0.00 33 1011.4
20260503211151 15 75 4.8 12.9 0.00 0.00 0.00 33 1011.5
20260503210645 15 85 6.4 16.1 0.00 0.00 0.00 34 1011.6
20260503210418 15 21 6.4 19.3 0.00 0.00 0.00 34 1011.7
20260503205644 15 72 4.8 19.3 0.00 0.00 0.00 33 1011.5
20260503205116 15 45 3.2 11.3 0.00 0.00 0.00 34 1011.6
20260503204846 15 143 3.2 11.3 0.00 0.00 0.00 34 1011.5
20260503204116 15 105 4.8 11.3 0.00 0.00 0.00 34 1011.6
20260503203613 15 91 6.4 19.3 0.00 0.00 0.00 37 1011.6
20260503203046 15 72 8.0 19.3 0.00 0.00 0.00 32 1011.6
20260503202547 15 84 6.4 14.5 0.00 0.00 0.00 35 1011.5
20260503202050 15 66 4.8 14.5 0.00 0.00 0.00 36 1011.6
20260503202046 15 106 6.4 14.5 0.00 0.00 0.00 35 1011.6
20260503201029 15 117 3.2 11.3 0.00 0.00 0.00 33 1011.7
20260503200530 15 78 3.2 9.7 0.00 0.00 0.00 35 1011.8
20260503200001 15 129 4.8 9.7 0.00 0.00 0.00 35 1011.7
20260503195459 15 101 4.8 9.7 0.00 0.00 0.00 33 1011.8
20260503194953 15 68 3.2 9.7 0.00 0.00 0.00 35 1011.9
20260503194450 15 85 3.2 9.7 0.00 0.00 0.00 35 1011.8
20260503193953 15 113 3.2 6.4 0.00 0.00 0.00 34 1011.8
20260503193724 15 101 4.8 14.5 0.00 0.00 0.00 36 1011.8
20260503192944 15 89 8.0 22.5 0.00 0.00 0.00 34 1011.9
20260503192416 15 75 4.8 22.5 0.00 0.00 0.00 32 1011.9
20260503192133 15 7 4.8 14.5 0.00 0.00 0.00 39 1012.0
20260503191403 14 82 4.8 16.1 0.00 0.00 0.00 36 1012.0
20260503190858 14 53 4.8 16.1 0.00 0.00 0.00 37 1012.0
20260503190359 15 85 6.4 16.1 0.00 0.00 0.00 34 1012.0
20260503185856 14 66 8.0 20.9 0.00 0.00 0.00 36 1012.2
20260503185330 14 60 8.0 27.4 0.00 0.00 0.00 35 1012.0
20260503184816 14 60 6.4 27.4 0.00 0.00 0.00 35 1012.0
20260503184539 14 84 4.8 16.1 0.00 0.00 0.00 33 1012.4
20260503183808 15 101 3.2 12.9 0.00 0.00 0.00 34 1012.3
20260503183251 15 111 4.8 14.5 0.00 0.00 0.00 39 1012.3
20260503182729 14 86 4.8 14.5 0.00 0.00 0.00 36 1012.5
20260503182151 14 98 4.8 12.9 0.00 0.00 0.00 39 1012.4
20260503181633 13 72 8.0 20.9 0.00 0.00 0.00 40 1012.5
20260503181122 13 68 6.4 20.9 0.00 0.00 0.00 35 1012.2
20260503180600 13 82 4.8 16.1 0.00 0.00 0.00 37 1012.5
20260503180337 13 131 4.8 12.9 0.00 0.00 0.00 38 1012.6
20260503175545 13 96 4.8 12.9 0.00 0.00 0.00 38 1012.6
20260503175047 13 60 3.2 11.3 0.00 0.00 0.00 37 1012.9
20260503174509 13 82 3.2 14.5 0.00 0.00 0.00 40 1012.9
20260503174005 13 93 4.8 14.5 0.00 0.00 0.00 40 1012.9
20260503173445 13 60 4.8 16.1 0.00 0.00 0.00 38 1012.8
20260503172935 13 148 4.8 16.1 0.00 0.00 0.00 41 1012.9
20260503172909 13 99 3.2 11.3 0.00 0.00 0.00 39 1012.9
20260503172122 13 62 3.2 11.3 0.00 0.00 0.00 40 1013.1
20260503171327 12 47 3.2 9.7 0.00 0.00 0.00 43 1013.0
20260503170824 12 61 3.2 9.7 0.00 0.00 0.00 43 1013.3
20260503170555 12 64 3.2 6.4 0.00 0.00 0.00 43 1013.1
20260503150851 10 215 3.2 9.7 0.00 0.00 0.00 51 1013.7
20260503150353 10 157 1.6 4.8 0.00 0.00 0.00 50 1013.7
20260503130910 8 123 1.6 9.7 0.00 0.00 0.00 56 1013.4
20260503130339 8 155 1.6 4.8 0.00 0.00 0.00 55 1013.5
20260503120107 7 139 1.6 4.8 0.00 0.00 0.00 58 1013.5
20260503110824 6 148 1.6 4.8 0.00 0.00 0.00 60 1012.9
20260503110309 6 219 0.0 4.8 0.00 0.00 0.00 61 1012.9
20260503081304 4 109 0.0 0.0 0.00 0.00 0.00 68 1011.1
20260503080726 4 108 0.0 0.0 0.00 0.00 0.00 67 1011.2
20260503080156 5 108 0.0 0.0 0.00 0.00 0.00 66 1011.2
20260503072557 5 109 0.0 0.0 0.00 0.00 0.00 62 1011.1
20260503072031 5 108 0.0 0.0 0.00 0.00 0.00 62 1011.1
20260503071742 5 109 0.0 0.0 0.00 0.00 0.00 63 1011.1
20260503071011 6 108 0.0 0.0 0.00 0.00 0.00 63 1011.0
20260503070456 6 109 0.0 0.0 0.00 0.00 0.00 63 1011.0
20260503054732 7 109 0.0 0.0 0.00 0.00 0.00 57 1011.3
20260503054206 7 109 0.0 0.0 0.00 0.00 0.00 57 1011.4
20260503053659 7 108 0.0 0.0 0.00 0.00 0.00 56 1011.3
20260503053157 7 108 0.0 1.6 0.00 0.00 0.00 57 1011.4
20260503052656 7 109 0.0 1.6 0.00 0.00 0.00 56 1011.4
20260503052157 8 108 0.0 0.0 0.00 0.00 0.00 56 1011.5
20260503051657 8 108 0.0 0.0 0.00 0.00 0.00 56 1011.5
20260503051125 8 108 0.0 0.0 0.00 0.00 0.00 56 1011.5
20260503050627 8 108 0.0 0.0 0.00 0.00 0.00 55 1011.5
20260503050333 8 108 0.0 0.0 0.00 0.00 0.00 56 1011.6
20260503045602 8 108 0.0 1.6 0.00 0.00 0.00 55 1011.7
20260503045046 8 108 0.0 1.6 0.00 0.00 0.00 55 1011.8
20260503044535 8 108 0.0 0.0 0.00 0.00 0.00 56 1011.7
20260503044032 8 108 0.0 0.0 0.00 0.00 0.00 55 1011.7
20260503043800 8 108 0.0 0.0 0.00 0.00 0.00 56 1011.7
20260503043010 8 108 0.0 0.0 0.00 0.00 0.00 56 1011.7
20260503042508 8 108 0.0 1.6 0.00 0.00 0.00 56 1011.9
20260503042010 8 108 0.0 1.6 0.00 0.00 0.00 55 1011.9
20260503041502 8 108 0.0 0.0 0.00 0.00 0.00 55 1011.9
20260503040959 8 108 0.0 1.6 0.00 0.00 0.00 55 1011.9
20260503040459 8 108 0.0 1.6 0.00 0.00 0.00 54 1011.9
20260503035950 8 108 0.0 0.0 0.00 0.00 0.00 55 1012.0
20260503035445 8 108 0.0 0.0 0.00 0.00 0.00 55 1011.8
20260503034943 8 108 0.0 0.0 0.00 0.00 0.00 54 1011.9
20260503034437 8 108 0.0 1.6 0.00 0.00 0.00 54 1011.8
20260503033926 8 113 0.0 1.6 0.00 0.00 0.00 55 1011.7
20260503033410 8 113 0.0 1.6 0.00 0.00 0.00 55 1011.8
20260503032845 8 113 0.0 1.6 0.00 0.00 0.00 54 1011.8
20260503032343 8 112 0.0 1.6 0.00 0.00 0.00 56 1011.8
20260503031755 7 113 0.0 1.6 0.00 0.00 0.00 56 1011.8
20260503031232 7 137 0.0 0.0 0.00 0.00 0.00 55 1011.9
20260503030714 8 137 0.0 0.0 0.00 0.00 0.00 56 1011.9
20260503030202 8 137 0.0 0.0 0.00 0.00 0.00 55 1011.9
20260503025647 8 137 0.0 0.0 0.00 0.00 0.00 55 1012.0
20260503025116 8 137 0.0 0.0 0.00 0.00 0.00 55 1012.0
20260503024548 8 137 0.0 0.0 0.00 0.00 0.00 55 1012.0
20260503024022 8 137 0.0 0.0 0.00 0.00 0.00 55 1011.8
20260503023516 8 137 0.0 0.0 0.00 0.00 0.00 55 1011.8
20260503023014 8 137 0.0 0.0 0.00 0.00 0.00 55 1011.8
20260503022509 8 137 0.0 0.0 0.00 0.00 0.00 53 1011.9
20260503022010 9 137 0.0 0.0 0.00 0.00 0.00 54 1011.9
20260503021723 9 137 0.0 0.0 0.00 0.00 0.00 52 1011.8
20260503021158 10 137 0.0 0.0 0.00 0.00 0.00 52 1011.8
20260503020401 10 136 0.0 0.0 0.00 0.00 0.00 52 1011.6
20260503015835 10 137 0.0 1.6 0.00 0.00 0.00 52 1011.8
20260503015543 10 137 0.0 1.6 0.00 0.00 0.00 51 1011.8
20260503014749 10 137 0.0 4.8 0.00 0.00 0.00 50 1011.8
20260503014225 10 142 0.0 4.8 0.00 0.00 0.00 51 1011.8
20260503013715 10 106 0.0 1.6 0.00 0.00 0.00 51 1011.6
20260503013419 10 106 0.0 1.6 0.00 0.00 0.00 50 1011.6
20260503012631 10 73 0.0 1.6 0.00 0.00 0.00 50 1011.7
20260503012620 10 112 0.0 1.6 0.00 0.00 0.00 51 1011.8
20260503011616 10 112 0.0 1.6 0.00 0.00 0.00 51 1011.7
20260503011112 10 112 0.0 1.6 0.00 0.00 0.00 52 1011.7
20260503010842 11 112 0.0 1.6 0.00 0.00 0.00 52 1011.7
20260503010320 11 112 0.0 1.6 0.00 0.00 0.00 51 1011.7
20260503005810 11 112 0.0 1.6 0.00 0.00 0.00 52 1011.5
20260503005037 11 112 0.0 1.6 0.00 0.00 0.00 51 1011.5
20260503004540 11 112 0.0 1.6 0.00 0.00 0.00 51 1011.4
20260503004024 11 112 0.0 1.6 0.00 0.00 0.00 49 1011.4
20260503003508 11 113 0.0 0.0 0.00 0.00 0.00 49 1011.3
20260503003011 11 112 0.0 0.0 0.00 0.00 0.00 50 1011.2
20260503002458 11 113 0.0 0.0 0.00 0.00 0.00 49 1011.3
20260503001958 11 113 0.0 0.0 0.00 0.00 0.00 49 1011.2
20260503001500 11 113 0.0 3.2 0.00 0.00 0.00 49 1011.1
20260503000957 11 113 0.0 3.2 0.00 0.00 0.00 47 1011.1
20260503000946 11 64 0.0 0.0 0.00 0.00 0.00 48 1011.1
20260502235930 11 65 0.0 0.0 0.00 0.00 0.00 49 1011.1
20260502235407 12 61 0.0 0.0 0.00 0.00 0.00 48 1011.0
20260502234856 12 61 0.0 1.6 0.00 0.00 0.00 47 1010.9
20260502234335 12 60 0.0 1.6 0.00 0.00 0.00 46 1010.9
20260502233806 12 98 0.0 1.6 0.00 0.00 0.00 46 1010.9
20260502233250 12 98 0.0 0.0 0.00 0.00 0.00 46 1010.8
20260502232730 12 98 0.0 0.0 0.00 0.00 0.00 47 1011.0
20260502232210 12 98 0.0 1.6 0.00 0.00 0.00 47 1011.1
20260502231921 12 98 0.0 1.6 0.00 0.00 0.00 47 1011.0
20260502231146 12 98 0.0 3.2 0.00 0.00 0.00 46 1011.1
20260502230624 13 98 0.0 3.2 0.00 0.00 0.00 47 1011.1
20260502230124 13 77 1.6 6.4 0.00 0.00 0.00 45 1010.9
20260502225621 13 115 1.6 6.4 0.00 0.00 0.00 45 1010.9
20260502225054 13 89 1.6 3.2 0.00 0.00 0.00 44 1010.9
20260502225041 13 89 1.6 3.2 0.00 0.00 0.00 44 1010.9
20260502224022 13 96 1.6 4.8 0.00 0.00 0.00 42 1010.8
20260502223754 13 86 1.6 4.8 0.00 0.00 0.00 42 1010.7
20260502223237 13 92 1.6 4.8 0.00 0.00 0.00 42 1010.7
20260502222715 14 92 1.6 6.4 0.00 0.00 0.00 40 1010.7
20260502221918 14 175 1.6 4.8 0.00 0.00 0.00 39 1010.6
20260502221648 14 190 1.6 4.8 0.00 0.00 0.00 42 1010.6
20260502220911 14 134 1.6 3.2 0.00 0.00 0.00 42 1010.6
20260502220410 14 222 0.0 3.2 0.00 0.00 0.00 40 1010.6
20260502215907 14 77 0.0 6.4 0.00 0.00 0.00 41 1010.6
20260502215401 14 165 0.0 6.4 0.00 0.00 0.00 42 1010.6